Location: Unspecified
(0.0000°N, 0.0000°E)
Time: 00:45:14
(UTC+00:00)

Tiros 10 despin weight - Visible Passes

Search period start: 13 June 2025 00:00
Search period end: 23 June 2025 00:00
Orbit: 786 x 837 km, 99.0° (Epoch: 12 June)

Date Brightness Start Highest point End Pass type
(mag) Time Alt. Az. Time Alt. Az. Time Alt. Az.
13 Jun ? 20:48:46 10° N 20:49:17 13° N 20:49:17 13° N visible
14 Jun ? 20:25:22 10° NNE 20:25:45 12° NNE 20:25:45 12° NNE visible
17 Jun ? 20:55:50 10° N 20:56:20 13° N 20:56:20 13° N visible
18 Jun ? 20:32:18 10° N 20:32:48 13° N 20:32:48 13° N visible
21 Jun ? 21:02:56 10° NNW 21:03:21 12° NNW 21:03:21 12° NNW visible
22 Jun ? 20:39:16 10° N 20:39:49 13° N 20:39:49 13° N visible
